Location: Chena
(64.8152°N, 147.9227°W)
Time: 01:35:57
(UTC+00:00)

Vanguard 2 - Pass Details

Date: 10 March 2021
Orbit: 552 x 2938 km, 32.9° (Epoch: 10 April)

Event Time Altitude Azimuth Distance (km) Brightness Sun altitude
Exits shadow 14:05:47 - 211° (SSW) 5,007 11.2 -15.5°
Reaches altitude 10° 14:06:59 10° 206° (SSW) 4,937 11.2 -15.4°
Maximum altitude 14:13:36 15° 179° (S) 4,951 11.4 -14.7°
Drops below altitude 10° 14:21:02 10° 152° (SSE) 5,645 12.0 -14.0°
Sets 14:28:44 0° 134° (SE) 6,788 12.7 -13.2°
